DateTimeUTC,F1_A11,F1_S11,BsB_S11,BsG_S11,BsR_S11,BbsB_S11,BbsG_S11,BbsR_S11,BaB_A11,BaG_A11,BaR_A11,Tu_S11,T_S11,Uu_S11,U_S11,P_S11,T1_A11
2021-08-18T00:00:00Z,00000200,20000000,,,,,,,-000.14,0000.02,-000.37,18.9,25.7,07.6,05.0,0677.9,31.0
2021-08-18T00:01:00Z,00000200,20000000,,,,,,,0000.09,0000.12,0000.36,18.9,25.7,07.6,05.0,0677.9,31.0
2021-08-18T00:02:00Z,00000200,20000000,,,,,,,0000.04,-000.06,0000.01,18.9,25.7,07.6,05.0,0677.9,31.0
2021-08-18T00:03:00Z,00000200,60000000,,,,,,,0000.96,0000.85,0000.48,18.9,25.7,07.6,05.0,0677.9,31.0
2021-08-18T00:04:00Z,00000200,40000000,0006.20,0004.73,0002.99,0000.50,0000.48,0000.44,0001.37,0001.21,0000.67,19.0,25.5,07.7,05.2,0678.8,31.0
2021-08-18T00:05:00Z,00000200,00000000,0005.89,0004.30,0003.12,0001.17,0000.35,0000.52,0001.15,0001.41,0001.24,19.1,25.5,07.8,05.3,0678.9,31.0
2021-08-18T00:06:00Z,00000200,00000000,0005.24,0004.14,0003.41,0000.96,0000.56,0000.39,0001.51,0001.11,0001.09,19.1,25.4,07.8,05.3,0678.9,31.0
2021-08-18T00:07:00Z,00000200,00000000,0005.34,0004.56,0003.09,0000.50,0000.63,0000.37,0001.16,0001.08,0000.72,19.1,25.4,07.8,05.3,0678.9,31.0
2021-08-18T00:08:00Z,00000200,00000000,0005.12,0004.30,0002.65,0000.57,0000.60,0000.33,0001.48,0001.22,0001.24,19.1,25.4,07.8,05.3,0678.9,31.0
2021-08-18T00:09:00Z,00000200,00000000,0005.56,0004.47,0003.12,0000.47,0000.58,0000.49,0001.26,0001.11,0000.68,19.1,25.4,07.9,05.4,0678.9,31.0
2021-08-18T00:10:00Z,00000200,00000000,0005.51,0003.77,0003.15,0000.89,0000.82,0000.19,0000.86,0000.95,0000.82,19.1,25.4,07.8,05.3,0678.9,31.0
2021-08-18T00:11:00Z,00000200,00000000,0005.96,0004.23,0002.80,0000.84,0000.77,0000.59,0001.22,0001.16,0000.85,19.1,25.4,07.8,05.3,0678.9,31.0
2021-08-18T00:12:00Z,00000200,00000000,0006.03,0004.68,0002.64,0000.20,0000.40,-000.09,0001.61,0001.38,0001.04,19.1,25.4,07.9,05.3,0678.9,31.0
2021-08-18T00:13:00Z,00000200,00000000,0005.78,0004.47,0003.30,0000.59,0000.76,0000.63,0000.91,0001.14,0000.86,19.1,25.4,07.8,05.3,0678.9,31.0
2021-08-18T00:14:00Z,00000200,00000000,0005.41,0004.41,0003.45,0000.83,0000.43,0000.50,0001.57,0001.13,0001.04,19.1,25.4,07.8,05.3,0678.9,31.0
2021-08-18T00:15:00Z,00000200,00000000,0005.45,0004.66,0003.12,0001.02,0000.38,0000.31,0001.17,0001.42,0001.04,19.1,25.4,07.8,05.3,0678.9,31.0
2021-08-18T00:16:00Z,00000200,00000000,0005.49,0004.73,0003.39,0000.86,0000.65,0000.07,0001.62,0001.16,0001.03,19.1,25.4,07.8,05.3,0678.9,31.0
2021-08-18T00:17:00Z,00000200,00000000,0005.97,0004.34,0003.20,0001.56,0000.83,0000.39,0001.00,0001.14,0000.70,19.1,25.4,07.8,05.3,0678.9,31.0
2021-08-18T00:18:00Z,00000200,00000000,0006.34,0005.13,0003.33,0001.06,0000.71,0000.43,0001.55,0001.37,0001.19,19.1,25.4,07.9,05.4,0678.9,31.0
2021-08-18T00:19:00Z,00000200,00000000,0006.28,0005.05,0003.60,0000.37,0000.61,0001.02,0001.29,0001.33,0000.84,19.1,25.4,08.0,05.5,0678.9,31.0
2021-08-18T00:20:00Z,00000200,00000000,0005.44,0005.28,0003.36,0000.84,0000.73,0000.47,0001.47,0000.84,0001.29,19.1,25.4,08.0,05.4,0678.8,31.0
2021-08-18T00:21:00Z,00000200,00000000,0006.25,0005.20,0003.84,0000.90,0000.45,0000.47,0001.52,0001.76,0001.03,19.1,25.4,08.0,05.4,0678.8,31.0
2021-08-18T00:22:00Z,00000200,00000000,0007.40,0005.20,0003.84,0001.46,0000.43,0000.41,0001.35,0001.46,0000.69,19.1,25.4,07.9,05.4,0678.8,31.0
2021-08-18T00:23:00Z,00000200,00000000,0006.23,0004.85,0003.58,0001.20,0001.03,0000.29,0001.52,0001.44,0001.51,19.1,25.4,08.0,05.4,0678.9,31.0
2021-08-18T00:24:00Z,00000200,00000000,0005.94,0004.68,0003.47,0000.95,0000.97,0000.25,0001.41,0001.30,0000.71,19.1,25.3,08.0,05.4,0678.9,31.0
2021-08-18T00:25:00Z,00000200,00000000,0006.44,0004.86,0003.42,0000.96,0000.27,0000.31,0001.50,0001.09,0001.42,19.1,25.3,08.0,05.4,0678.8,31.0
2021-08-18T00:26:00Z,00000200,00000000,0006.37,0004.91,0003.52,0001.30,0000.76,0000.64,0001.71,0001.65,0001.05,19.1,25.4,08.0,05.5,0678.8,31.0
2021-08-18T00:27:00Z,00000200,00000000,0006.75,0004.84,0003.54,0001.05,0000.67,0000.53,0001.25,0001.12,0000.83,19.1,25.4,08.0,05.5,0678.8,31.0
2021-08-18T00:28:00Z,00000200,00000000,0006.63,0005.15,0003.30,0001.07,0000.92,0000.37,0001.31,0001.28,0000.98,19.1,25.3,08.0,05.5,0678.9,31.0
2021-08-18T00:29:00Z,00000200,00000000,0006.45,0005.16,0003.59,0000.70,0000.56,0000.67,0001.77,0001.21,0000.83,19.1,25.3,08.0,05.5,0678.9,31.0
2021-08-18T00:30:00Z,00000200,00000000,0006.78,0005.01,0003.21,0000.81,0000.63,0000.73,0001.30,0001.38,0001.36,19.1,25.3,08.0,05.5,0678.9,31.0
2021-08-18T00:31:00Z,00000200,00000000,0006.00,0005.00,0003.62,0001.11,0000.46,0000.66,0001.46,0001.74,0000.96,19.1,25.3,08.1,05.5,0678.9,31.0
2021-08-18T00:32:00Z,00000200,00000000,0005.96,0004.66,0003.33,0001.11,0000.36,0000.42,0001.35,0001.01,0001.17,19.1,25.4,08.0,05.5,0678.9,31.0
2021-08-18T00:33:00Z,00000200,00000000,0006.26,0004.64,0003.02,0000.91,0000.58,0000.21,0001.57,0001.35,0000.85,19.1,25.3,08.0,05.4,0678.9,31.0
2021-08-18T00:34:00Z,00000200,00000000,0006.23,0004.72,0003.20,0001.67,0000.57,0000.66,0001.06,0001.30,0001.30,19.1,25.3,08.1,05.5,0678.9,31.0
2021-08-18T00:35:00Z,00000200,00000000,0006.26,0004.81,0003.26,0000.52,0000.48,0000.20,0001.30,0001.24,0000.92,19.1,25.3,08.0,05.5,0678.9,31.0
2021-08-18T00:36:00Z,00000200,00000000,0006.30,0004.78,0003.29,0000.89,0000.85,0000.66,0001.63,0001.23,0001.00,19.1,25.3,08.1,05.5,0678.9,31.0
2021-08-18T00:37:00Z,00000200,00000000,0005.33,0004.88,0003.54,0000.05,0000.49,0000.57,0001.20,0001.17,0001.05,19.1,25.3,08.1,05.5,0678.9,31.0
2021-08-18T00:38:00Z,00000200,00000000,0005.98,0004.42,0003.46,0001.54,0000.61,0000.51,0001.79,0001.22,0000.81,19.1,25.3,08.0,05.5,0678.9,31.0
2021-08-18T00:39:00Z,00000200,00000000,0006.40,0005.01,0003.67,0000.83,0000.44,0000.62,0000.96,0001.29,0000.88,19.1,25.3,08.0,05.5,0678.9,31.0
2021-08-18T00:40:00Z,00000200,00000000,0006.30,0005.21,0003.70,0001.13,0000.56,0000.06,0001.63,0001.56,0001.27,19.1,25.3,08.1,05.5,0678.9,31.0
2021-08-18T00:41:00Z,00000200,00000000,0006.14,0005.36,0003.62,0000.38,0000.83,0000.44,0001.62,0001.33,0001.39,19.1,25.3,08.1,05.5,0678.9,31.0
2021-08-18T00:42:00Z,00000200,00000000,0006.69,0005.56,0003.76,0000.19,0000.63,0000.42,0001.38,0001.37,0000.83,19.1,25.3,08.1,05.5,0678.9,31.0
2021-08-18T00:43:00Z,00000200,00000000,0006.86,0005.28,0003.76,0000.95,0000.76,0000.58,0001.82,0001.53,0001.35,19.0,25.3,08.1,05.5,0678.9,31.0
2021-08-18T00:44:00Z,00000200,00000000,0006.24,0005.53,0003.71,0001.30,0000.80,0000.55,0001.32,0001.47,0001.12,19.1,25.3,08.2,05.6,0678.9,31.0
2021-08-18T00:45:00Z,00000200,00000000,0006.41,0005.50,0003.86,0001.21,0000.51,0000.27,0001.56,0001.37,0001.28,19.1,25.3,08.1,05.5,0678.9,31.0
2021-08-18T00:46:00Z,00000200,00000000,0007.05,0005.92,0003.45,0001.35,0000.53,0000.22,0001.47,0001.41,0000.70,19.1,25.3,08.1,05.6,0678.9,31.0
2021-08-18T00:47:00Z,00000200,00000000,0006.70,0005.68,0003.65,0001.31,0000.51,0000.36,0001.51,0001.57,0001.45,19.1,25.3,08.1,05.6,0678.9,31.0
2021-08-18T00:48:00Z,00000200,00000000,0006.22,0005.48,0003.70,0000.38,0000.37,0000.53,0001.62,0001.43,0001.19,19.0,25.3,08.1,05.5,0679.0,31.0
2021-08-18T00:49:00Z,00000200,00000000,0006.13,0005.12,0003.56,0001.13,0000.65,0000.43,0001.43,0001.06,0000.75,19.1,25.3,08.1,05.5,0679.0,31.0
2021-08-18T00:50:00Z,00000200,00000000,0006.23,0005.13,0003.54,0000.75,0000.77,0000.47,0001.69,0001.40,0001.23,19.1,25.3,08.1,05.6,0679.0,31.0
2021-08-18T00:51:00Z,00000200,00000000,0006.39,0005.18,0003.56,0001.38,0000.55,0000.45,0001.32,0001.68,0000.87,19.1,25.3,08.1,05.6,0679.0,31.0
2021-08-18T00:52:00Z,00000200,00000000,0005.29,0005.39,0003.67,0001.04,0000.65,0000.56,0001.09,0000.90,0001.16,19.1,25.3,08.0,05.5,0679.0,31.0
2021-08-18T00:53:00Z,00000200,00000000,0007.31,0005.56,0003.71,0001.38,0000.43,0000.69,0001.67,0001.62,0001.21,19.1,25.3,08.0,05.5,0679.0,31.0
2021-08-18T00:54:00Z,00000200,00000000,0006.85,0005.65,0004.08,0000.57,0000.70,0000.36,0001.48,0001.15,0000.91,19.1,25.3,08.1,05.5,0679.0,31.0
2021-08-18T00:55:00Z,00000200,00000000,0006.40,0005.35,0004.04,0000.57,0000.66,0000.57,0001.63,0001.77,0001.27,19.1,25.3,08.1,05.6,0679.0,31.0
2021-08-18T00:56:00Z,00000200,00000000,0007.34,0005.56,0003.56,0001.23,0000.77,0000.53,0001.70,0001.06,0001.42,19.0,25.3,08.1,05.6,0679.0,31.0
2021-08-18T00:57:00Z,00000200,40000000,,,,,,,0000.26,0000.70,0000.10,19.1,25.3,08.3,05.7,0679.1,31.0
2021-08-18T00:58:00Z,00000200,60000000,,,,,,,-000.28,-000.45,-000.01,18.8,25.4,08.2,05.4,0678.0,31.0
2021-08-18T00:59:00Z,00000200,20000000,,,,,,,0000.10,0000.12,-000.13,18.8,25.5,08.1,05.4,0678.0,31.0
